Location: Unspecified
(51.2667°N, 0.0000°E)
Time: 14:40:41
(UTC+00:00)

nSIGHT-1 - Pass Details

Date: 24 September 2019
Orbit: 337 x 344 km, 51.6° (Epoch: 14 October)

Event Time Altitude Azimuth Distance (km) Brightness Sun altitude
Rises 19:38:57 0° 281° (WNW) 2,151 ? -16.8°
Reaches altitude 10° 19:41:18 10° 263° (W) 1,303 ? -17.2°
Maximum altitude 19:43:28 19° 215° (SW) 902 ? -17.5°
Enters shadow 19:44:06 18° 196° (SSW) 942 ? -17.6°
